Weather observations for the past three days for
Gwinnett County Airport-Briscoe Field
Imperial (Metric)
Date Time (edt) Wind (mph) Vis. (mi.) Weather Sky Cond. Temperature (ºF) Relative Humidity Wind Chill (°F) Heat Index (°F) Pressure Precipitation (in)
Air Dwpt 6 hour altimeter (in) sea level (mb) 1 hr 3 hr 6 hr
Max. Min.
22 21:56 Calm 10.00 Fair CLR 81 66 61% 83 30.03 1016.9
22 20:56 Calm 10.00 Fair CLR 84.9 64.9 51% 87 30.02 1016.4
22 19:56 NE 5 10.00 Fair CLR 90 64 95 89.1 42% 91 30.02 1016.3
22 18:56 E 3 10.00 Fair CLR 93 63 37% 94 30.02 1016.3
22 17:56 Vrbl 5 10.00 Fair CLR 91.9 62.1 37% 93 30.02 1016.4
22 16:56 Vrbl 6 10.00 Fair CLR 91.9 62.1 37% 93 30.04 1017.0
22 15:56 Calm 10.00 Partly Cloudy SCT065 89.1 63 42% 90 30.06 1017.8
22 14:56 Vrbl 3 10.00 Fair CLR 91.9 64 40% 94 30.09 1018.6
22 13:56 Vrbl 7 10.00 Fair CLR 90 66 90 75 45% 93 30.11 1019.7
22 12:56 Calm 10.00 Partly Cloudy SCT045 SCT065 87.1 66 50% 89 30.14 1020.6
22 11:56 Calm 10.00 Partly Cloudy SCT050 87.1 69.1 55% 91 30.16 1021.2
22 10:56 E 8 10.00 Fair CLR 84.9 70 61% 89 30.16 1021.3
22 09:56 E 6 10.00 Fair CLR 81 69.1 67% 84 30.17 1021.5
22 08:56 NE 6 10.00 Fair CLR 78.1 68 71% 80 30.18 1021.8
22 07:56 NE 5 10.00 Fair CLR 75 66 75 68 74% 76 30.17 1021.6
22 06:56 Calm 10.00 Fair CLR 68 64.9 90% 30.17 1021.6
22 05:56 Calm 10.00 Fair CLR 69.1 64 84% 30.16 1021.1
22 04:56 Calm 10.00 Fair CLR 71.1 64 79% 30.15 1021.0
22 03:56 NE 3 10.00 Fair CLR 71.1 64 79% 30.16 1021.2
22 02:56 NE 3 10.00 A Few Clouds FEW060 71.1 64.9 81% 30.16 1021.2
22 01:56 Calm 10.00 Fair CLR 70 64.9 87.1 70 84% 30.17 1021.6
22 00:56 Calm 10.00 Fair CLR 71.1 66 84% 30.18 1022.0
21 23:56 Calm 10.00 Fair CLR 73 66 79% 30.18 1021.9
21 22:56 Calm 10.00 Fair CLR 75 64.9 71% 77 30.17 1021.7
21 21:56 Calm 10.00 Fair CLR 77 64.9 66% 79 30.16 1021.3
21 20:56 Calm 10.00 Fair CLR 82.9 63 51% 84 30.15 1020.7
21 19:56 E 7 10.00 Fair CLR 87.1 62.1 91 87.1 43% 88 30.14 1020.7
21 18:56 NE 8 10.00 Fair CLR 88 62.1 42% 88 30.15 1021.0
21 17:56 Vrbl 5 10.00 Fair CLR 90 62.1 39% 90 30.16 1021.2
21 16:56 E 7 10.00 Fair CLR 90 62.1 39% 90 30.18 1021.9
21 15:56 NE 8 10.00 Fair CLR 89.1 62.1 41% 89 30.19 1022.3
21 14:56 E 9 10.00 Partly Cloudy SCT055 90 63 41% 91 30.21 1023.0
21 13:56 E 8 10.00 A Few Clouds FEW049 89.1 62.1 89.1 71.1 41% 89 30.23 1023.6
21 12:56 NE 6 10.00 Partly Cloudy SCT049 84 63 49% 85 30.26 1024.6
21 11:56 Vrbl 6 10.00 Partly Cloudy SCT045 84.9 64 50% 86 30.27 1025.1
21 10:56 Vrbl 3 10.00 Fair CLR 82 64.9 56% 84 30.28 1025.3
21 09:56 Calm 10.00 Fair CLR 78.1 66 67% 80 30.29 1025.6
21 08:56 Calm 10.00 Fair CLR 75.9 66 72% 77 30.28 1025.5
21 07:56 Calm 10.00 Fair CLR 71.1 64.9 71.1 66 81% 30.29 1025.7
21 06:56 Calm 10.00 Fair CLR 68 64 87% 30.28 1025.3
21 05:56 Calm 10.00 Fair CLR 66 63 90% 30.27 1025.1
21 04:56 Calm 10.00 Fair CLR 66.9 63 87% 30.26 1024.7
21 03:56 Calm 10.00 Fair CLR 66.9 63 87% 30.25 1024.5
21 02:56 Calm 10.00 Fair CLR 69.1 63 81% 30.26 1024.7
21 01:56 Calm 10.00 Fair CLR 70 64 84 69.1 82% 30.26 1024.6
21 00:56 Calm 10.00 Fair CLR 70 63 79% 30.27 1025.0
20 23:56 Calm 10.00 Fair CLR 71.1 63 76% 30.27 1025.1
20 22:56 Calm 10.00 Fair CLR 73 63 71% 30.27 1025.1
20 21:56 Calm 10.00 Fair CLR 77 62.1 60% 79 30.26 1024.7
20 20:56 NE 3 10.00 Fair CLR 81 62.1 53% 82 30.25 1024.5
20 19:56 NE 5 10.00 A Few Clouds FEW055 84 62.1 89.1 84 48% 85 30.25 1024.5
20 17:56 E 12 10.00 Partly Cloudy SCT060 88 61 40% 88 30.26 0.0
20 16:56 E 8 10.00 Partly Cloudy SCT060 88 61 40% 88 30.27 1024.9
20 15:56 E 12 G 16 10.00 Mostly Cloudy BKN055 87.1 62.1 43% 88 30.28 1025.3
20 14:56 E 14 10.00 Partly Cloudy SCT060 86 62.1 45% 87 30.3 1026.1
20 13:56 E 13 G 17 10.00 A Few Clouds FEW055 87.1 63 87.1 71.1 45% 88 30.32 1026.7
20 12:56 E 14 G 21 10.00 Mostly Cloudy SCT046 BKN050 84.9 63 48% 86 30.34 1027.3
20 11:56 E 12 10.00 Partly Cloudy SCT040 82.9 63 51% 84 30.35 1027.7
20 10:56 NE 8 G 17 10.00 Fair CLR 81 63 54% 82 30.36 1028.1
20 09:56 Vrbl 6 10.00 A Few Clouds FEW060 78.1 64.9 64% 80 30.35 1027.8
20 08:56 NE 6 10.00 Overcast OVC060 73.9 64.9 74% 30.35 1027.8
20 07:56 Vrbl 3 10.00 Partly Cloudy SCT060 72 64.9 79% 30.34 1027.3
20 06:56 Calm 10.00 Partly Cloudy FEW048 SCT060 69.1 64 84% 30.32 1026.9
20 05:56 NE 3 10.00 Overcast BKN046 OVC055 0 0 0% 30.31 0.0
20 04:56 E 3 10.00 A Few Clouds FEW060 69.1 64 84% 30.29 1025.9
20 03:56 NE 3 10.00 Fair CLR 70 64 82% 30.28 1025.6
20 02:56 NE 3 10.00 Fair CLR 71.1 64 79% 30.27 1025.2
20 01:56 Calm 10.00 Overcast OVC050 73 64.9 80.1 73 76% 30.28 1025.2
20 00:56 NE 5 10.00 Mostly Cloudy BKN050 73 64 74% 30.27 1025.1
19 23:56 NE 5 10.00 Fair CLR 73.9 64 71% 30.27 1025.1
19 22:56 NE 5 10.00 Fair CLR 75 64 69% 77 30.27 1025.3
Date Time (edt) Wind (mph) Vis. (mi.) Weather Sky Cond. Air Dwpt Max. Min. Relative Humidity Wind Chill (°F) Heat Index (°F) altimeter (in) sea level (mb) 1 hr 3 hr 6 hr
6 hour
Temperature (ºF) Pressure Precipitation (in)